sat.trackr.live / text

‹ back to catalog

STARLINK-37388

NORAD 68860 · 2026-094X

PAYLOAD ACTIVE UNKNOWN

§ Identity

Operator
Country
US
Launch date
2026-04-26
Launch site
AFWTR
Launch vehicle
Mass (kg)
RCS (m²)

Purposes: comms

External: N2YO · Heavens-Above · Gunter

§ Orbital elements

Epoch: 2026-09-20T04:26:06.972288Z

Period
93.91 min
Inclination
97.2837°
Eccentricity
0.0002143
Mean motion
15.33456620 rev/d
Perigee alt
464.0 km
Apogee alt
467.0 km
Semi-major
6,843.6 km
B*
5.3806e-4
RAAN
276.3758°
Arg perigee
90.5058°
Mean anomaly
269.6430°
Rev number
2,261

§ Raw data

STARLINK-373881 68860U 26094X   26263.18480292  .00017343  00000+0  53806-3 0  99942 68860  97.2837 276.3758 0002143  90.5058 269.6430 15.33456620 22617

JSON: /api/v1/satellites/68860 · /tle

For live sub-satellite position, see the globe view (requires WebGL).

§ Visibility from observer

Set your observer location to see the next 7 days of passes ≥ 10°. The values pass through the URL so the page stays shareable.

No JS? Fill the form by hand. The geolocation button needs JavaScript.